FW5485 Weather Reports


time (UTC)temp
C
wind
direction
speed
KPH
gust
KPH
rain 1hr
cm
rain 24hr
cm
rain mn
cm
humidity
%
barometer
mb
20260504141015 19 0 1.6 6.4 0.00 0.00 0.00 44 1015.3
20260504081016 8 0.0 0.0 0.00 0.00 0.00 83 1016.0
20260504050016 7 0.0 0.0 0.00 0.00 0.00 76 1016.2
20260504045016 7 0.0 0.0 0.00 0.00 0.00 76 1016.2
20260504044016 7 0.0 0.0 0.00 0.00 0.00 75 1016.1
20260504043015 7 0.0 0.0 0.00 0.00 0.00 76 1016.2
20260504042015 7 0.0 0.0 0.00 0.00 0.00 76 1016.0
20260504041016 7 0.0 0.0 0.00 0.00 0.00 76 1016.0
20260504040035 7 0.0 0.0 0.00 0.00 0.00 75 1015.9
20260504035035 7 0.0 0.0 0.00 0.00 0.00 76 1016.0
20260504034015 7 0.0 0.0 0.00 0.00 0.00 75 1015.9
20260504033015 7 0.0 0.0 0.00 0.00 0.00 76 1015.8
20260504032015 7 0.0 0.0 0.00 0.00 0.00 76 1015.7
20260504031015 7 0.0 0.0 0.00 0.00 0.00 76 1015.8
20260504030015 7 0.0 0.0 0.00 0.00 0.00 75 1015.8
20260504025016 7 0.0 0.0 0.00 0.00 0.00 76 1015.7
20260504024015 6 0.0 0.0 0.00 0.00 0.00 74 1015.7
20260504023035 7 0.0 0.0 0.00 0.00 0.00 74 1015.6
20260504022015 7 0.0 0.0 0.00 0.00 0.00 73 1015.6
20260504021037 7 0.0 0.0 0.00 0.00 0.00 72 1015.5
20260504020015 7 0.0 0.0 0.00 0.00 0.00 72 1015.5
20260504015015 7 0.0 0.0 0.00 0.00 0.00 72 1015.2
20260504014015 8 0.0 0.0 0.00 0.00 0.00 70 1015.1
20260504013015 8 0.0 0.0 0.00 0.00 0.00 69 1015.1
20260504012015 8 0.0 0.0 0.00 0.00 0.00 71 1014.8
20260504011015 9 0.0 0.0 0.00 0.00 0.00 67 1014.9
20260504010017 9 0.0 0.0 0.00 0.00 0.00 66 1015.0
20260504005017 10 0.0 0.0 0.00 0.00 0.00 66 1014.9
20260504004037 10 0.0 0.0 0.00 0.00 0.00 64 1014.8
20260504003017 11 0.0 0.0 0.00 0.00 0.00 64 1014.8
20260504002017 12 0.0 0.0 0.00 0.00 0.00 61 1014.7
20260504001017 12 0.0 0.0 0.00 0.00 0.00 59 1014.8
20260504000017 13 0.0 0.0 0.00 0.00 0.00 59 1014.6
20260503235017 14 0.0 0.0 0.00 0.00 0.00 51 1014.6
20260503234017 15 0.0 0.0 0.00 0.00 0.00 47 1014.5
20260503233017 15 0.0 0.0 0.00 0.00 0.00 45 1014.5
20260503232016 16 0.0 4.8 0.00 0.00 0.00 41 1014.4
20260503231016 16 0.0 4.8 0.00 0.00 0.00 43 1014.3
20260503230036 16 0.0 0.0 0.00 0.00 0.00 37 1014.4
20260503225017 16 0.0 1.6 0.00 0.00 0.00 34 1014.4
20260503224037 17 0 1.6 4.8 0.00 0.00 0.00 36 1014.4
20260503223016 17 0 1.6 6.4 0.00 0.00 0.00 34 1014.4
20260503222016 17 0 1.6 6.4 0.00 0.00 0.00 34 1014.6
20260503221017 17 0 1.6 9.7 0.00 0.00 0.00 38 1014.6
20260503220016 18 0.0 4.8 0.00 0.00 0.00 33 1014.7
20260503215016 18 0.0 3.2 0.00 0.00 0.00 33 1014.7
20260503214016 18 0.0 3.2 0.00 0.00 0.00 32 1014.8
20260503213016 18 0 1.6 4.8 0.00 0.00 0.00 32 1014.9
20260503212016 18 0 1.6 4.8 0.00 0.00 0.00 32 1014.9
20260503211016 18 0 1.6 4.8 0.00 0.00 0.00 33 1015.0
20260503210016 18 0 1.6 3.2 0.00 0.00 0.00 31 1015.1
20260503205016 18 0 3.2 6.4 0.00 0.00 0.00 32 1015.1
20260503204016 18 0 3.2 8.0 0.00 0.00 0.00 34 1015.2
20260503203016 18 0 4.8 12.9 0.00 0.00 0.00 36 1015.2
20260503202016 18 0 1.6 6.4 0.00 0.00 0.00 38 1015.4
20260503201016 18 0 4.8 14.5 0.00 0.00 0.00 34 1015.5
20260503200036 18 0 3.2 9.7 0.00 0.00 0.00 32 1015.7
20260503195016 18 0 3.2 8.0 0.00 0.00 0.00 34 1015.9
20260503194016 17 0 3.2 8.0 0.00 0.00 0.00 35 1016.0
20260503193016 17 0 3.2 8.0 0.00 0.00 0.00 33 1016.2
20260503192016 17 0 3.2 8.0 0.00 0.00 0.00 33 1016.6
20260503191016 17 0 4.8 9.7 0.00 0.00 0.00 35 1016.7
20260503190016 17 0 1.6 8.0 0.00 0.00 0.00 33 1016.7
20260503185016 18 0 3.2 6.4 0.00 0.00 0.00 33 1017.0
20260503184016 17 0 3.2 8.0 0.00 0.00 0.00 36 1017.1
20260503183016 17 0 3.2 8.0 0.00 0.00 0.00 38 1017.2
20260503182036 17 0 3.2 8.0 0.00 0.00 0.00 38 1017.3
20260503181016 16 0 3.2 12.9 0.00 0.00 0.00 33 1017.4
20260503180016 16 0 3.2 9.7 0.00 0.00 0.00 32 1017.5
20260503175016 16 0 4.8 12.9 0.00 0.00 0.00 35 1017.6
20260503174036 16 0 3.2 9.7 0.00 0.00 0.00 35 1017.7
20260503173016 16 0 4.8 19.3 0.00 0.00 0.00 36 1017.8
20260503172036 16 0 3.2 8.0 0.00 0.00 0.00 33 1017.8
20260503171036 16 0 6.4 16.1 0.00 0.00 0.00 38 1017.8